| time (UTC) | temp F | wind direction | speed knots | gust knots | rain 1hr in | rain 24hr in | rain mn in | humidity % | barometer mb |
| 20260510230149 | 67 | 0 | 0.0 | 0.0 | 0.00 | 0.06 | 0.00 | 70 | 1013.5 |
| 20260510223149 | 67 | 253 | 0.0 | 0.9 | 0.00 | 0.12 | 0.00 | 69 | 1013.4 |
| 20260510220151 | 67 | 285 | 0.9 | 3.5 | 0.00 | 0.18 | 0.00 | 73 | 1013.6 |
| 20260510213149 | 67 | 182 | 0.0 | 1.7 | 0.00 | 0.21 | 0.00 | 74 | 1013.3 |
| 20260510200150 | 67 | 182 | 1.7 | 5.2 | 0.00 | 0.28 | 0.00 | 73 | 1012.9 |
| 20260510170151 | 67 | 185 | 2.6 | 7.0 | 0.00 | 0.40 | 0.00 | 74 | 1013.4 |
| 20260510150150 | 58 | 228 | 0.9 | 4.3 | 0.00 | 0.40 | 0.00 | 91 | 1014.1 |
| 20260510140150 | 58 | 175 | 0.9 | 4.3 | 0.00 | 0.40 | 0.00 | 90 | 1013.6 |
| 20260510130150 | 57 | 178 | 0.9 | 3.5 | 0.00 | 0.40 | 0.00 | 93 | 1013.7 |
| 20260510120151 | 54 | 256 | 0.0 | 4.3 | 0.00 | 0.40 | 0.00 | 96 | 1012.9 |
| 20260510110151 | 54 | 178 | 0.0 | 2.6 | 0.00 | 0.40 | 0.00 | 96 | 1012.7 |
| 20260510100150 | 53 | 0 | 0.0 | 0.0 | 0.00 | 0.41 | 0.00 | 96 | 1012.7 |
| 20260510093149 | 53 | 0 | 0.0 | 0.0 | 0.00 | 0.41 | 0.00 | 96 | 1013.0 |
| 20260510090150 | 53 | 0 | 0.0 | 0.0 | 0.00 | 0.41 | 0.00 | 96 | 1013.0 |
| 20260510070150 | 54 | 0 | 0.0 | 0.0 | 0.00 | 0.43 | 0.00 | 96 | 1012.4 |
| 20260510060150 | 54 | 0 | 0.0 | 0.0 | 0.00 | 0.43 | 0.00 | 96 | 1011.9 |
| 20260510053149 | 54 | 0 | 0.0 | 0.0 | 0.00 | 0.43 | 0.00 | 96 | 1012.2 |
| 20260510050149 | 54 | 0 | 0.0 | 0.0 | 0.00 | 0.43 | 0.00 | 96 | 1012.2 |
| 20260510043149 | 54 | 0 | 0.0 | 0.0 | 0.00 | 0.43 | 0.00 | 96 | 1012.2 |
| 20260510040150 | 54 | 0 | 0.0 | 0.0 | 0.00 | 0.43 | 0.00 | 96 | 1011.8 |
| 20260510030320 | 54 | 0 | 0.0 | 0.0 | 0.00 | 0.43 | 0.43 | 96 | 1012.0 |
| 20260510030150 | 54 | 0 | 0.0 | 0.0 | 0.00 | 0.43 | 0.43 | 96 | 1012.0 |
| 20260510020151 | 54 | 0 | 0.0 | 0.0 | 0.00 | 0.43 | 0.43 | 96 | 1011.9 |
| 20260510010150 | 54 | 0 | 0.0 | 0.0 | 0.00 | 0.43 | 0.43 | 96 | 1011.7 |
| 20260510000152 | 55 | 248 | 0.0 | 1.7 | 0.06 | 0.43 | 0.43 | 95 | 1011.2 |